EW6077 Weather Reports


time (UTC)temp
F
wind
direction
speed
knots
gust
knots
rain 1hr
in
rain 24hr
in
rain mn
in
humidity
%
barometer
mb
20260504050001 47 335 15.6 0.0 0.00 0.00 0.00 55 998.8
20260504044500 47 315 16.5 0.0 0.00 0.00 0.00 53 998.7
20260504043110 49 315 16.5 0.0 0.00 0.00 0.00 54 998.6
20260504041600 51 346 20.0 0.0 0.00 0.00 0.00 53 998.4
20260504040106 52 312 15.6 0.0 0.00 0.00 0.00 48 997.9
20260504034601 53 319 15.6 0.0 0.00 0.00 0.00 48 997.6
20260504033100 53 315 13.0 0.0 0.00 0.00 0.00 50 997.4
20260504031604 53 313 10.4 0.0 0.00 0.00 0.00 51 997.2
20260504030057 52 313 9.6 0.0 0.00 0.00 0.00 58 997.4
20260504024558 51 292 11.3 0.0 0.00 0.00 0.00 64 997.5
20260504023058 52 317 17.4 0.0 0.00 0.00 0.00 64 997.6
20260504021556 53 319 14.8 0.0 0.00 0.00 0.00 62 997.6
20260504020055 52 325 14.8 0.0 0.00 0.00 0.00 66 997.4
20260504014601 52 360 18.2 0.0 0.00 0.00 0.00 65 997.4
20260504013107 52 355 20.9 0.0 0.00 0.00 0.00 65 996.8
20260504011554 56 360 20.9 0.0 0.00 0.00 0.00 57 996.4
20260504010112 59 348 20.9 0.0 0.00 0.00 0.00 49 996.0
20260504004554 65 348 12.2 0.0 0.00 0.00 0.00 41 995.4
20260504003053 68 311 5.2 0.0 0.00 0.00 0.00 36 994.3
20260504001601 68 288 5.2 0.0 0.00 0.00 0.00 35 994.4
20260504000052 68 310 5.2 0.0 0.00 0.00 0.00 40 994.7
20260503234551 68 302 6.1 0.0 0.00 0.00 0.00 41 994.7
20260503233059 69 234 4.3 0.0 0.00 0.00 0.00 40 994.6
20260503231548 69 297 5.2 0.0 0.00 0.00 0.00 42 994.7
20260503230047 68 273 6.1 0.0 0.00 0.00 0.00 42 995.2
20260503224545 68 274 7.0 0.0 0.00 0.00 0.00 41 995.4
20260503223044 68 327 9.6 0.0 0.00 0.00 0.00 40 995.7
20260503221549 69 293 8.7 0.0 0.00 0.00 0.00 37 995.8
20260503220043 69 302 14.8 0.0 0.00 0.00 0.00 38 995.8
20260503214539 72 265 9.6 0.0 0.00 0.00 0.00 28 996.2
20260503213038 74 221 11.3 0.0 0.00 0.00 0.00 27 996.3
20260503211535 75 269 10.4 0.0 0.00 0.00 0.00 27 996.5
20260503210044 74 295 8.7 0.0 0.00 0.00 0.00 28 997.0
20260503204530 73 221 9.6 0.0 0.00 0.00 0.00 29 997.5
20260503203028 72 222 7.8 0.0 0.00 0.00 0.00 28 998.0
20260503201532 71 194 7.8 0.0 0.00 0.00 0.00 29 998.6
20260503200023 73 246 10.4 0.0 0.00 0.00 0.00 28 999.0
20260503194519 72 246 8.7 0.0 0.00 0.00 0.00 28 999.3
20260503193017 70 249 8.7 0.0 0.00 0.00 0.00 28 999.9
20260503191515 71 240 7.8 0.0 0.00 0.00 0.00 29 1000.0
20260503190013 71 288 7.0 0.0 0.00 0.00 0.00 30 1000.4
20260503184517 69 234 7.0 0.0 0.00 0.00 0.00 29 1000.6
20260503183009 70 289 6.1 0.0 0.00 0.00 0.00 30 1001.3
20260503181507 71 265 7.8 0.0 0.00 0.00 0.00 29 1001.5
20260503180005 71 269 7.8 0.0 0.00 0.00 0.00 29 1002.1
20260503174502 70 256 7.8 0.0 0.00 0.00 0.00 29 1002.5
20260503173154 70 269 7.0 0.0 0.00 0.00 0.00 29 1002.9
20260503171554 69 257 7.0 0.0 0.00 0.00 0.00 31 1003.4
20260503081512 28 325 0.0 0.0 0.00 0.00 0.00 82 1010.5
20260503071501 31 325 0.0 0.0 0.00 0.00 0.00 81 1010.5